Location: *
(48.8489°N, 2.3218°E)
Time: 22:26:24
(UTC+00:00)

Helios 1A - Pass Details

Date: 23 August 2019
Orbit: 583 x 605 km, 98.2° (Epoch: 09 September)

Event Time Altitude Azimuth Distance (km) Brightness Sun altitude
Exits shadow 22:44:31 46° 344° (NNW) 795 3.9 -28.0°
Drops below altitude 10° 22:47:31 10° 346° (NNW) 1,932 6.6 -28.1°
Sets 22:49:42 0° 346° (NNW) 2,842 7.7 -28.2°
